TimeMST,TemperatureF,Dew PointF,Humidity,Sea Level PressureIn,VisibilityMPH,Wind Direction,Wind SpeedMPH,Gust SpeedMPH,PrecipitationIn,Events,Conditions,WindDirDegrees,DateUTC
12:54 AM,34.0,28.0,79,29.91,10.0,North,-9999.0,-,N/A,,Unknown,0,2014-02-27 07:54:00
1:54 AM,28.0,24.1,85,29.92,10.0,Calm,Calm,-,N/A,,Clear,0,2014-02-27 08:54:00
2:54 AM,28.0,23.0,81,29.89,10.0,Calm,Calm,-,N/A,,Clear,0,2014-02-27 09:54:00
3:54 AM,34.0,28.9,82,29.85,10.0,SW,9.2,-,N/A,,Clear,230,2014-02-27 10:54:00
4:54 AM,32.0,28.9,88,29.87,10.0,SW,5.8,-,N/A,,Clear,220,2014-02-27 11:54:00
5:54 AM,37.0,32.0,82,29.85,10.0,SW,6.9,-,N/A,,Mostly Cloudy,220,2014-02-27 12:54:00
6:54 AM,39.0,33.1,79,29.86,10.0,SSW,5.8,-,N/A,,Overcast,200,2014-02-27 13:54:00
7:54 AM,41.0,33.1,73,29.85,10.0,SSW,12.7,-,N/A,,Partly Cloudy,210,2014-02-27 14:54:00
8:54 AM,44.1,32.0,63,29.84,10.0,SSW,17.3,25.3,N/A,,Scattered Clouds,210,2014-02-27 15:54:00
9:54 AM,46.9,32.0,56,29.81,10.0,SSW,15.0,26.5,N/A,,Mostly Cloudy,200,2014-02-27 16:54:00
10:54 AM,48.9,32.0,52,29.79,10.0,SW,24.2,33.4,N/A,,Overcast,230,2014-02-27 17:54:00
11:54 AM,48.9,32.0,52,29.76,10.0,SW,17.3,33.4,N/A,,Overcast,220,2014-02-27 18:54:00
12:54 PM,53.1,28.0,38,29.71,10.0,SW,29.9,47.2,N/A,,Mostly Cloudy,230,2014-02-27 19:54:00
1:54 PM,53.1,24.1,32,29.67,10.0,WSW,35.7,52.9,N/A,,Mostly Cloudy,250,2014-02-27 20:54:00
2:33 PM,53.1,17.1,24,29.80,10.0,WSW,33.4,49.5,N/A,,Squalls,240,2014-02-27 21:33:00
3:54 PM,-9999,-9999,N/A,29.83,-9999.0,North,-9999.0,-,N/A,,Unknown,0,2014-02-27 22:54:00
4:54 PM,-9999,-9999,N/A,29.86,-9999.0,North,-9999.0,-,N/A,,Unknown,0,2014-02-27 23:54:00
5:54 PM,-9999,-9999,N/A,29.88,-9999.0,North,-9999.0,-,N/A,,Unknown,0,2014-02-28 00:54:00
6:54 PM,-9999,-9999,N/A,29.91,-9999.0,North,-9999.0,-,N/A,,Unknown,0,2014-02-28 01:54:00
7:54 PM,-9999,-9999,N/A,29.94,-9999.0,North,-9999.0,-,N/A,,Unknown,0,2014-02-28 02:54:00
8:54 PM,37.0,15.1,41,29.85,10.0,SSW,5.8,-,N/A,,Clear,210,2014-02-28 03:54:00
9:54 PM,27.0,15.1,61,29.89,10.0,WSW,4.6,-,N/A,,Clear,240,2014-02-28 04:54:00
10:54 PM,28.0,12.0,51,29.87,10.0,WSW,4.6,-,N/A,,Clear,240,2014-02-28 05:54:00
11:54 PM,23.0,12.0,63,29.90,10.0,Calm,Calm,-,N/A,,Clear,0,2014-02-28 06:54:00